Location: Ch�teau-Arnoux
(44.0814°N, 6.0027°E)
Time: 08:37:01
(UTC+00:00)

Cosmos 2322 - Pass Details

Date: 15 November 2019
Orbit: 841 x 854 km, 71.0° (Epoch: 12 December)

Event Time Altitude Azimuth Distance (km) Brightness Sun altitude
Rises 05:52:04 0° 337° (NNW) 3,425 6.5 -7.3°
Reaches altitude 10° 05:54:36 10° 342° (NNW) 2,484 5.8 -6.8°
Maximum altitude 06:00:11 54° 60° (ENE) 1,020 4.5 -5.9°
Drops below altitude 10° 06:05:43 10° 138° (SE) 2,460 7.3 -4.9°
Sets 06:08:12 0° 143° (SE) 3,390 8.0 -4.5°
